Weather in Isenbayevo

Russia / Republic of Tatarstan     56°02′51″N   53°25′04″E
temp.,
°C
wind,
m/s
gust,
m/s
humid.,
%
clouds,
%
prec.,
mm/h
press.,
hPa
HPBL,
m
25 may, wed
wed2500:00+6n3885100 0.0 1007149
03:00+5nne2288100 0.0 100625
06:00+8nw4675100 0.0 1005223
09:00+13nw3360100 0.0 1005804
12:00+15sw335397 0.2 10061461
15:00+12w3472100 1.4 1006686
18:00+6wnw6993100 2.9 1008580
21:00+6sw249286 4.2 1010175
26 may, thu
thu2600:00+4wsw38887 0.1 1011149
03:00+2wsw39915 0.1 1012213
06:00+6wsw48816 0.0 1013529
09:00+8wsw576668 0.1 10141203
12:00+10sw5861100 0.0 10151540
15:00+11sw475886 0.1 10151443
18:00+10sw486798 0.1 1013401
21:00+6ssw22815 0.1 101324
27 may, fri
fri2700:00+5s338942 0.0 101246
03:00+5sse358894 0.0 1011105
06:00+8s41279100 0.1 1010417
09:00+14s7116485 0.1 1008839
12:00+15s81273100 0.3 10081216
15:00+12s71285100 1.3 1007933
18:00+12sse61190100 0.1 1006643
21:00+10sse5139655 0.2 1006418
28 may, sat
sat2800:00+10s5129655 0.4 1006463
03:00+9s5119896 0.4 1007419
06:00+11ssw589189 0.0 1008583
09:00+14sw577352 0.1 10091011
12:00+17ssw6858100 0.1 10091753
15:00+17ssw61166100 0.3 10091565
18:00+14s61476100 0.3 1009744
21:00+14sw61484100 0.9 1010774
29 may, sun
sun2900:00+13ssw51196100 5.0 1011529
03:00+12sw4119685 5.3 1013427
06:00+14sw598870 0.0 1015581
09:00+16sw6962100 0.0 10161235
12:00+18sw6955100 0.0 10171876
15:00+12nw3690100 0.6 1018306
18:00+11wsw3993100 2.0 1019434
21:00+10sw41093100 2.8 1020361